Location: Newark
(42.9858°N, 0.6717°E)
Time: 05:28:27
(UTC+00:00)

S-56A Canister/Altair - Pass Details

Date: 24 November 2019
Orbit: 633 x 2500 km, 38.9° (Epoch: 08 December)

Event Time Altitude Azimuth Distance (km) Brightness Sun altitude
Rises 18:47:34 0° 274° (W) 5,023 13.0 -25.3°
Reaches altitude 10° 18:51:25 10° 271° (W) 3,727 12.0 -26.0°
Maximum altitude 19:00:10 57° 196° (SSW) 1,299 8.6 -27.6°
Enters shadow 19:01:43 47° 152° (SSE) 1,359 8.5 -27.9°
Drops below altitude 10° 19:05:59 10° 119° (ESE) 2,512 - -28.7°
Sets 19:08:08 0° 114° (ESE) 3,291 - -29.1°
